User: anonymous   Login
Location: Caltech
(34.1382°N, 118.1253°W)
Time: 07:39:01
(UTC-08:00)
Language:

OPAL - Orbit

View from above orbital plane
View from above orbital plane
View from above satellite
View from above satellite

Ground track
Ground track

The orbit data is extracted from the following two-line orbital elements,

1 26063U 00004C   16337.96263825 -.00000005  00000-0  18359-4 0  9998
2 26063 100.2091 299.1827 0036861 140.7473 219.6390 14.36643965883208
Epoch (UTC): 02 December 2016 23:06:11
Eccentricity: 0.0036861
inclination: 100.2091°
perigee height: 743 km
apogee height: 796 km
right ascension of ascending node: 299.1827°
argument of perigee: 140.7473°
revolutions per day: 14.36643965
mean anomaly at epoch: 219.6390°
orbit number at epoch: 88320

The dashed part of the orbit path shows where the satellite is in the earth's shadow,  

DLR